カタログに戻る

STARLINK-2450

運用中通信VLEO
NORAD 48113·PAYLOAD·🇺🇸 United States

打ち上げ Apr 7, 2021 から Cape Canaveral Space Force Station

Loading…

次のパス (今後24時間)

TLE

最新Source: CelesTrak SupGP

元期: Sep 14, 2026, 21:42 UTC

1 48113C 21027X   26257.90465278 -.00022949  00000+0 -73792-3 0  2577
2 48113  53.1611   4.7412 0001180  81.0093 279.6924 15.31716290    10

AllMySatでSTARLINK-2450をリアルタイム追跡

Download on the App Store